星链-35224(STARLINK-35224)

导读 | 豆包AI

STARLINK-35224是美国SpaceX星链星座的卫星,于2025年9月26日发射升空,属于星链项目低轨卫星互联网组网的组成部分。该卫星继承星链卫星典型设计,依托近地轨道部署,为全球尤其是偏远地区提供高速网络接入服务,进一步扩充了星链星座的在轨卫星规模,强化星座通信覆盖能力与服务稳定性。

基本信息
目录编号:
65811
目录名称:
STARLINK-35224
国际标识:
2025-218W
轨道中心:
EARTH
卫星名称:
星链-35224
卫星全名:
星链-35224(STARLINK-35224)
卫星状态:
在轨 (已飞行190 天)
发射日期:
2025-09-26 UTC
国别 :
美国 (US)
星等 :
--
轨道信息
数据来源 国际轨道数据 AOE轨道数据
星历时间 2026-04-03T22:55:42+0800
18小时前
查看轨道信息
2026-03-31T21:00:00+0800
3天前
查看轨道信息
半长轴 6927.635km 6927.678km
偏心率 0.0003786 0.0002843
轨道倾角 97.602° 97.603°
近地点辐角 37.117° 75.513°
升交点赤经 317.564° 314.527°
平近点角 323.032° 158.548°
近地点 546.875km 547.571km
远地点 552.121km 551.511km
周期 95.639分钟 95.640分钟
每日圈数 15.056546 15.056403
详细信息
固有亮度:
5
最大亮度:
2.5
卫星平台:
Starlink V1.0
覆盖范围:
全球
运营商:
太空探索技术公司
运营商所在国:
美国
制造商(研发单位):
太空探索技术公司
制造商所在国:
美国
使用方式:
暂无
卫星简介
Starlink 计划是 SpaceX 推出的全球卫星互联网项目,通过发射低轨道卫星,为全球尤其是偏远地区提供高速、低延迟的互联网服务。自 2019 年起,Starlink 已部署数千颗卫星,旨在缩小全球数字鸿沟,推动互联网普及。该项目还为军事、航空等行业提供通信支持,带来广泛经济效益。
2D轨道图
3D轨道图
轨道高度分析图
轨道倾角分析图
轨道综合分析图
查看轨道综合分析图